,,Stat6,,Stat2,,Stat8,,Stat9,,Stat10,,Wind1,,Wind1,
time,status,PA1M_AVG,status,PR1M_SUM,status,RH1M_AVG,status,SR1M_AVG,status,TA1M_AVG,status,W1dAve1m,status,W1sAve1m,
2005-02-23, 00:00:00,VALID,920.691,VALID,0,VALID,88.0332,VALID,-0.0679233,VALID,20.1086,VALID,129,VALID,0.732515,
2005-02-23, 00:01:00,VALID,920.697,VALID,0,VALID,88.3473,VALID,-0.0679233,VALID,20.0642,VALID,143,VALID,1.10538,
2005-02-23, 00:02:00,VALID,920.693,VALID,0,VALID,88.6601,VALID,-0.0679233,VALID,20.003,VALID,142,VALID,0.899858,
2005-02-23, 00:03:00,VALID,920.681,VALID,0,VALID,89.0365,VALID,-0.0679233,VALID,19.9382,VALID,133,VALID,0.853198,
2005-02-23, 00:04:00,VALID,920.662,VALID,0,VALID,89.3849,VALID,-0.0509425,VALID,19.8736,VALID,128,VALID,0.764172,
2005-02-23, 00:05:00,VALID,920.629,VALID,0,VALID,89.6888,VALID,-0.0849042,VALID,19.8155,VALID,124,VALID,0.980168,
2005-02-23, 00:06:00,VALID,920.615,VALID,0,VALID,89.9419,VALID,-0.0509425,VALID,19.7638,VALID,121,VALID,1.29629,
2005-02-23, 00:07:00,VALID,920.595,VALID,0,VALID,90.0779,VALID,0.0169808,VALID,19.7179,VALID,103,VALID,0.788336,
2005-02-23, 00:08:00,VALID,920.573,VALID,0,VALID,90.3017,VALID,0,VALID,19.6657,VALID,96,VALID,0.997638,
2005-02-23, 00:09:00,VALID,920.548,VALID,0,VALID,90.4887,VALID,0,VALID,19.627,VALID,111,VALID,1.03391,
2005-02-23, 00:10:00,VALID,920.534,VALID,0,VALID,90.4658,VALID,0,VALID,19.6175,VALID,105,VALID,1.00418,
2005-02-23, 00:11:00,VALID,920.536,VALID,0,VALID,90.3602,VALID,0,VALID,19.6138,VALID,112,VALID,1.04492,
2005-02-23, 00:12:00,VALID,920.532,VALID,0,VALID,90.3005,VALID,0,VALID,19.6304,VALID,107,VALID,1.04179,
2005-02-23, 00:13:00,VALID,920.525,VALID,0,VALID,90.1695,VALID,0.0169808,VALID,19.6506,VALID,101,VALID,0.900841,
2005-02-23, 00:14:00,VALID,920.53,VALID,0,VALID,90.1466,VALID,0,VALID,19.6332,VALID,104,VALID,1.05983,
2005-02-23, 00:15:00,VALID,920.537,VALID,0,VALID,90.0767,VALID,0,VALID,19.6597,VALID,120,VALID,0.660528,
2005-02-23, 00:16:00,VALID,920.561,VALID,0,VALID,89.9469,VALID,0,VALID,19.663,VALID,120,VALID,0.737216,
2005-02-23, 00:17:00,VALID,920.558,VALID,0,VALID,89.8783,VALID,0,VALID,19.6627,VALID,96,VALID,0.655887,
2005-02-23, 00:18:00,VALID,920.554,VALID,0,VALID,90.0665,VALID,0,VALID,19.6302,VALID,104,VALID,0.508557,
2005-02-23, 00:19:00,VALID,920.542,VALID,0,VALID,90.186,VALID,0,VALID,19.6145,VALID,103,VALID,0.29367,
2005-02-23, 00:20:00,VALID,920.532,VALID,0,VALID,90.3424,VALID,0,VALID,19.5751,VALID,149,VALID,1.01491,
2005-02-23, 00:21:00,VALID,920.528,VALID,0,VALID,90.3984,VALID,0.0169808,VALID,19.5659,VALID,150,VALID,1.00911,
2005-02-23, 00:22:00,VALID,920.523,VALID,0,VALID,90.4276,VALID,0,VALID,19.5691,VALID,137,VALID,1.06759,
2005-02-23, 00:23:00,VALID,920.509,VALID,0,VALID,90.453,VALID,0,VALID,19.5567,VALID,113,VALID,0.628906,
2005-02-23, 00:24:00,VALID,920.484,VALID,0,VALID,90.5993,VALID,0,VALID,19.5368,VALID,103,VALID,0.858232,
2005-02-23, 00:25:00,VALID,920.459,VALID,0,VALID,90.687,VALID,-0.0169808,VALID,19.5405,VALID,90,VALID,1.03846,
2005-02-23, 00:26:00,VALID,920.437,VALID,0,VALID,90.7735,VALID,0.0169808,VALID,19.5144,VALID,92,VALID,1.05913,
2005-02-23, 00:27:00,VALID,920.405,VALID,0,VALID,90.8485,VALID,0.0169808,VALID,19.505,VALID,87,VALID,1.49688,
2005-02-23, 00:28:00,VALID,920.373,VALID,0,VALID,90.9375,VALID,-0.0169808,VALID,19.4822,VALID,89,VALID,1.16461,
2005-02-23, 00:29:00,VALID,920.341,VALID,0,VALID,91.0354,VALID,-0.0339617,VALID,19.472,VALID,96,VALID,1.1875,
2005-02-23, 00:30:00,VALID,920.321,VALID,0,VALID,91.0825,VALID,0,VALID,19.4635,VALID,100,VALID,1.28924,
2005-02-23, 00:31:00,VALID,920.284,VALID,0,VALID,91.0202,VALID,-0.0169808,VALID,19.4663,VALID,104,VALID,0.882622,
2005-02-23, 00:32:00,VALID,920.26,VALID,0,VALID,91.0418,VALID,0.0169808,VALID,19.463,VALID,94,VALID,0.901442,
2005-02-23, 00:33:00,VALID,920.233,VALID,0,VALID,91.1181,VALID,0,VALID,19.4663,VALID,87,VALID,1.01989,
2005-02-23, 00:34:00,VALID,920.219,VALID,0,VALID,91.1473,VALID,0,VALID,19.4432,VALID,104,VALID,0.984003,
2005-02-23, 00:35:00,VALID,920.191,VALID,0,VALID,91.2567,VALID,0,VALID,19.4305,VALID,93,VALID,1.0605,
2005-02-23, 00:36:00,VALID,920.176,VALID,0,VALID,91.2961,VALID,0,VALID,19.4312,VALID,106,VALID,1.01525,
2005-02-23, 00:37:00,VALID,920.168,VALID,0,VALID,91.3928,VALID,-0.0169808,VALID,19.4183,VALID,96,VALID,1.10955,
2005-02-23, 00:38:00,VALID,920.145,VALID,0,VALID,91.4487,VALID,0,VALID,19.3985,VALID,109,VALID,0.933699,
2005-02-23, 00:39:00,VALID,920.131,VALID,0,VALID,91.5454,VALID,0,VALID,19.3985,VALID,110,VALID,1.07708,
2005-02-23, 00:40:00,VALID,920.132,VALID,0,VALID,91.3381,VALID,0.0169808,VALID,19.4052,VALID,78,VALID,0.948686,
2005-02-23, 00:41:00,VALID,920.117,VALID,0,VALID,91.2554,VALID,0,VALID,19.3495,VALID,76,VALID,0.725991,
2005-02-23, 00:42:00,VALID,920.13,VALID,0,VALID,91.806,VALID,0.0169808,VALID,19.3274,VALID,115,VALID,0.955543,
2005-02-23, 00:43:00,VALID,920.12,VALID,0,VALID,91.8277,VALID,0,VALID,19.35,VALID,131,VALID,0.725291,
2005-02-23, 00:44:00,VALID,920.111,VALID,0,VALID,91.7183,VALID,0,VALID,19.3659,VALID,130,VALID,0.395089,
2005-02-23, 00:45:00,VALID,920.122,VALID,0,VALID,91.1829,VALID,0.0169808,VALID,19.3667,VALID,126,VALID,0.0635653,
2005-02-23, 00:46:00,VALID,920.132,VALID,0,VALID,90.7773,VALID,0,VALID,19.2755,VALID,126,VALID,0.190662,
2005-02-23, 00:47:00,VALID,920.143,VALID,0,VALID,91.4322,VALID,0.0339617,VALID,19.195,VALID,126,VALID,0.0342988,
2005-02-23, 00:48:00,VALID,920.153,VALID,0,VALID,91.89,VALID,0.0169808,VALID,19.1238,VALID,126,VALID,0.203711,
2005-02-23, 00:49:00,VALID,920.152,VALID,0,VALID,92.4329,VALID,0,VALID,19.0885,VALID,126,VALID,0.231597,
2005-02-23, 00:50:00,VALID,920.16,VALID,0,VALID,92.8297,VALID,0,VALID,19.0594,VALID,126,VALID,0.293423,
2005-02-23, 00:51:00,VALID,920.163,VALID,0,VALID,92.9848,VALID,0.0169808,VALID,19.0463,VALID,85,VALID,0.685865,
2005-02-23, 00:52:00,VALID,920.158,VALID,0,VALID,93.1654,VALID,0.0169808,VALID,19.0339,VALID,81,VALID,0.787534,
2005-02-23, 00:53:00,VALID,920.135,VALID,0,VALID,93.4146,VALID,0.0169808,VALID,19.0046,VALID,100,VALID,0.780222,
2005-02-23, 00:54:00,VALID,920.115,VALID,0,VALID,93.3892,VALID,0,VALID,19.011,VALID,100,VALID,0.821733,
2005-02-23, 00:55:00,VALID,920.089,VALID,0,VALID,93.4108,VALID,0,VALID,19.0048,VALID,100,VALID,0.927326,
2005-02-23, 00:56:00,VALID,920.066,VALID,0,VALID,93.1832,VALID,0,VALID,19.0207,VALID,89,VALID,1.08327,
2005-02-23, 00:57:00,VALID,920.049,VALID,0,VALID,93.2061,VALID,0,VALID,19.0306,VALID,105,VALID,1.21039,
2005-02-23, 00:58:00,VALID,920.032,VALID,0,VALID,93.0484,VALID,0.0169808,VALID,19.0537,VALID,107,VALID,1.27006,
2005-02-23, 00:59:00,VALID,920.003,VALID,0,VALID,92.8437,VALID,0,VALID,19.0756,VALID,107,VALID,1.33516,
2005-02-23, 01:00:00,VALID,919.98,VALID,0,VALID,92.6733,VALID,0.0169808,VALID,19.1014,VALID,105,VALID,1.53757,
2005-02-23, 01:01:00,VALID,919.965,VALID,0,VALID,92.4075,VALID,0,VALID,19.1138,VALID,100,VALID,1.33185,
2005-02-23, 01:02:00,VALID,919.942,VALID,0,VALID,92.1977,VALID,0.0169808,VALID,19.1466,VALID,96,VALID,1.35807,
2005-02-23, 01:03:00,VALID,919.926,VALID,0,VALID,92.2028,VALID,0,VALID,19.1598,VALID,95,VALID,1.32546,
2005-02-23, 01:04:00,VALID,919.903,VALID,0,VALID,92.2956,VALID,0,VALID,19.1754,VALID,97,VALID,1.45243,
2005-02-23, 01:05:00,VALID,919.892,VALID,0,VALID,92.0642,VALID,-0.0169808,VALID,19.2214,VALID,102,VALID,1.24143,
2005-02-23, 01:06:00,VALID,919.875,VALID,0,VALID,92.0743,VALID,0,VALID,19.2276,VALID,97,VALID,1.16461,
2005-02-23, 01:07:00,VALID,919.867,VALID,0,VALID,91.9459,VALID,0,VALID,19.2633,VALID,97,VALID,1.12936,
2005-02-23, 01:08:00,VALID,919.868,VALID,0,VALID,92.0146,VALID,0,VALID,19.279,VALID,113,VALID,1.03125,
2005-02-23, 01:09:00,VALID,919.86,VALID,0,VALID,91.965,VALID,0,VALID,19.3115,VALID,116,VALID,1.27219,
2005-02-23, 01:10:00,VALID,919.847,VALID,0,VALID,91.7437,VALID,0,VALID,19.3567,VALID,112,VALID,0.690225,
2005-02-23, 01:11:00,VALID,919.828,VALID,0,VALID,91.7005,VALID,0.0509425,VALID,19.3729,VALID,111,VALID,0.901101,
2005-02-23, 01:12:00,VALID,919.813,VALID,0,VALID,91.6534,VALID,0.0509425,VALID,19.3796,VALID,113,VALID,0.959579,
2005-02-23, 01:13:00,VALID,919.79,VALID,0,VALID,91.7158,VALID,0,VALID,19.3828,VALID,118,VALID,1.11719,
2005-02-23, 01:14:00,VALID,919.753,VALID,0,VALID,91.7297,VALID,0,VALID,19.3828,VALID,124,VALID,1.05316,
2005-02-23, 01:15:00,VALID,919.734,VALID,0,VALID,91.6967,VALID,0.0169808,VALID,19.395,VALID,128,VALID,1.18928,
2005-02-23, 01:16:00,VALID,919.706,VALID,0,VALID,91.5949,VALID,0,VALID,19.4119,VALID,128,VALID,1.20894,
2005-02-23, 01:17:00,VALID,919.684,VALID,0,VALID,91.5695,VALID,0,VALID,19.4178,VALID,118,VALID,1.07852,
2005-02-23, 01:18:00,VALID,919.658,VALID,0,VALID,91.5008,VALID,0,VALID,19.4086,VALID,115,VALID,0.928597,
2005-02-23, 01:19:00,VALID,919.637,VALID,0,VALID,91.525,VALID,-0.0169808,VALID,19.3957,VALID,113,VALID,1.03106,
2005-02-23, 01:20:00,VALID,919.625,VALID,0,VALID,91.5886,VALID,0.0169808,VALID,19.3895,VALID,112,VALID,1.26181,
2005-02-23, 01:21:00,VALID,919.612,VALID,0,VALID,91.6547,VALID,0,VALID,19.3701,VALID,115,VALID,1.30185,
2005-02-23, 01:22:00,VALID,919.594,VALID,0,VALID,91.7018,VALID,0.0169808,VALID,19.3604,VALID,118,VALID,0.96984,
2005-02-23, 01:23:00,VALID,919.572,VALID,0,VALID,91.7882,VALID,0,VALID,19.3376,VALID,111,VALID,1.21191,
2005-02-23, 01:24:00,VALID,919.542,VALID,0,VALID,91.8391,VALID,-0.0169808,VALID,19.3247,VALID,112,VALID,1.31493,
2005-02-23, 01:25:00,VALID,919.518,VALID,0,VALID,91.8633,VALID,-0.0169808,VALID,19.321,VALID,113,VALID,1.19188,
2005-02-23, 01:26:00,VALID,919.495,VALID,0,VALID,91.8086,VALID,0,VALID,19.3306,VALID,116,VALID,1.09938,
2005-02-23, 01:27:00,VALID,919.476,VALID,0,VALID,91.8073,VALID,0,VALID,19.3281,VALID,112,VALID,0.65004,
2005-02-23, 01:28:00,VALID,919.462,VALID,0,VALID,91.8442,VALID,0,VALID,19.3247,VALID,112,VALID,0.956174,
2005-02-23, 01:29:00,VALID,919.455,VALID,0,VALID,91.848,VALID,0,VALID,19.3185,VALID,117,VALID,0.760231,
2005-02-23, 01:30:00,VALID,919.438,VALID,0,VALID,91.9472,VALID,0,VALID,19.2889,VALID,127,VALID,1.10975,
2005-02-23, 01:31:00,VALID,919.433,VALID,0,VALID,91.9688,VALID,0,VALID,19.3058,VALID,124,VALID,1.17383,
2005-02-23, 01:32:00,VALID,919.42,VALID,0,VALID,91.8989,VALID,0.0169808,VALID,19.3088,VALID,122,VALID,0.800481,
2005-02-23, 01:33:00,VALID,919.394,VALID,0,VALID,91.9421,VALID,0.0169808,VALID,19.3085,VALID,125,VALID,0.888626,
2005-02-23, 01:34:00,VALID,919.39,VALID,0,VALID,91.9103,VALID,0.0169808,VALID,19.3085,VALID,136,VALID,1.16338,
2005-02-23, 01:35:00,VALID,919.379,VALID,0,VALID,91.7259,VALID,0,VALID,19.344,VALID,133,VALID,1.24083,
2005-02-23, 01:36:00,VALID,919.376,VALID,0,VALID,91.5377,VALID,0,VALID,19.3729,VALID,131,VALID,1.0089,
2005-02-23, 01:37:00,VALID,919.376,VALID,0,VALID,91.4881,VALID,0,VALID,19.3796,VALID,133,VALID,1.00893,
2005-02-23, 01:38:00,VALID,919.373,VALID,0,VALID,91.3228,VALID,0,VALID,19.4119,VALID,137,VALID,0.968378,
2005-02-23, 01:39:00,VALID,919.369,VALID,0,VALID,91.3088,VALID,0,VALID,19.4116,VALID,138,VALID,1.08067,
2005-02-23, 01:40:00,VALID,919.382,VALID,0,VALID,91.2453,VALID,0,VALID,19.4148,VALID,139,VALID,1.06836,
2005-02-23, 01:41:00,VALID,919.378,VALID,0,VALID,91.2122,VALID,0.0169808,VALID,19.422,VALID,141,VALID,1.03563,
2005-02-23, 01:42:00,VALID,919.379,VALID,0,VALID,91.113,VALID,0.0339617,VALID,19.4151,VALID,136,VALID,0.641319,
2005-02-23, 01:43:00,VALID,919.37,VALID,0,VALID,91.2414,VALID,0,VALID,19.3925,VALID,133,VALID,0.609747,
2005-02-23, 01:44:00,VALID,919.369,VALID,0,VALID,91.3228,VALID,0,VALID,19.3729,VALID,137,VALID,0.785511,
2005-02-23, 01:45:00,VALID,919.357,VALID,0,VALID,91.3343,VALID,0.0169808,VALID,19.3734,VALID,130,VALID,0.912946,
2005-02-23, 01:46:00,VALID,919.344,VALID,0,VALID,91.3877,VALID,0.0169808,VALID,19.3639,VALID,109,VALID,0.991616,
2005-02-23, 01:47:00,VALID,919.308,VALID,0,VALID,91.5988,VALID,0,VALID,19.3537,VALID,103,VALID,1.2237,
2005-02-23, 01:48:00,VALID,919.295,VALID,0,VALID,91.5174,VALID,0.0169808,VALID,19.3667,VALID,103,VALID,1.15677,
2005-02-23, 01:49:00,VALID,919.267,VALID,0,VALID,91.3902,VALID,0,VALID,19.3634,VALID,101,VALID,1.35919,
2005-02-23, 01:50:00,VALID,919.233,VALID,0,VALID,91.4042,VALID,0,VALID,19.3667,VALID,105,VALID,1.56745,
2005-02-23, 01:51:00,VALID,919.205,VALID,0,VALID,91.2542,VALID,0,VALID,19.3863,VALID,101,VALID,1.47027,
2005-02-23, 01:52:00,VALID,919.182,VALID,0,VALID,91.1168,VALID,0.0339617,VALID,19.3987,VALID,100,VALID,1.25514,
2005-02-23, 01:53:00,VALID,919.16,VALID,0,VALID,90.8511,VALID,0.0169808,VALID,19.4086,VALID,82,VALID,1.19085,
2005-02-23, 01:54:00,VALID,919.164,VALID,0,VALID,90.9452,VALID,0,VALID,19.3731,VALID,88,VALID,1.22238,
2005-02-23, 01:55:00,VALID,919.154,VALID,0,VALID,91.1995,VALID,0.0339617,VALID,19.3468,VALID,90,VALID,1.56473,
2005-02-23, 01:56:00,VALID,919.137,VALID,0,VALID,91.2198,VALID,0.0169808,VALID,19.3411,VALID,100,VALID,1.24628,
2005-02-23, 01:57:00,VALID,919.12,VALID,0,VALID,91.3851,VALID,0.0169808,VALID,19.3182,VALID,105,VALID,1.37639,
2005-02-23, 01:58:00,VALID,919.11,VALID,0,VALID,91.4869,VALID,0,VALID,19.2956,VALID,97,VALID,1.22734,
2005-02-23, 01:59:00,VALID,919.094,VALID,0,VALID,91.4589,VALID,0,VALID,19.2661,VALID,85,VALID,1.24414,
2005-02-23, 02:00:00,VALID,919.089,VALID,0,VALID,91.4398,VALID,0.0169808,VALID,19.2343,VALID,84,VALID,1.1051,
2005-02-23, 02:01:00,VALID,919.08,VALID,0,VALID,91.965,VALID,0,VALID,19.1729,VALID,88,VALID,1.19893,
2005-02-23, 02:02:00,VALID,919.068,VALID,0,VALID,92.2473,VALID,0,VALID,19.1471,VALID,96,VALID,1.18941,
2005-02-23, 02:03:00,VALID,919.056,VALID,0,VALID,92.2231,VALID,0,VALID,19.1215,VALID,90,VALID,1.10063,
2005-02-23, 02:04:00,VALID,919.049,VALID,0,VALID,92.2854,VALID,0.0339617,VALID,19.0726,VALID,89,VALID,0.933789,
2005-02-23, 02:05:00,VALID,919.047,VALID,0,VALID,92.6326,VALID,0,VALID,19.0209,VALID,93,VALID,1.08262,
2005-02-23, 02:06:00,VALID,919.03,VALID,0,VALID,93.056,VALID,-0.0169808,VALID,19.0311,VALID,105,VALID,1.05376,
2005-02-23, 02:07:00,VALID,919.019,VALID,0,VALID,92.9683,VALID,0,VALID,19.0341,VALID,113,VALID,0.873728,
2005-02-23, 02:08:00,VALID,919.003,VALID,0,VALID,92.822,VALID,0,VALID,19.044,VALID,117,VALID,0.59702,
2005-02-23, 02:09:00,VALID,918.994,VALID,0,VALID,92.8564,VALID,0.0169808,VALID,19.044,VALID,115,VALID,0.533067,
2005-02-23, 02:10:00,VALID,918.972,VALID,0,VALID,93.1399,VALID,0,VALID,19.0376,VALID,134,VALID,1.09266,
2005-02-23, 02:11:00,VALID,918.981,VALID,0,VALID,93.0802,VALID,0,VALID,19.0696,VALID,130,VALID,1.21361,
2005-02-23, 02:12:00,VALID,918.961,VALID,0,VALID,92.9492,VALID,-0.0169808,VALID,19.0959,VALID,132,VALID,1.23565,
2005-02-23, 02:13:00,VALID,918.947,VALID,0,VALID,92.8119,VALID,0,VALID,19.1021,VALID,135,VALID,1.10082,
2005-02-23, 02:14:00,VALID,918.953,VALID,0,VALID,92.569,VALID,-0.0169808,VALID,19.1245,VALID,144,VALID,1.0158,
2005-02-23, 02:15:00,VALID,918.935,VALID,0,VALID,92.4762,VALID,0,VALID,19.1513,VALID,138,VALID,0.880208,
2005-02-23, 02:16:00,VALID,918.923,VALID,0,VALID,92.5944,VALID,0,VALID,19.1374,VALID,131,VALID,1.14187,
2005-02-23, 02:17:00,VALID,918.91,VALID,0,VALID,92.5868,VALID,0,VALID,19.1411,VALID,140,VALID,1.04325,
2005-02-23, 02:18:00,VALID,918.911,VALID,0,VALID,92.5639,VALID,0,VALID,19.1538,VALID,133,VALID,1.19375,
2005-02-23, 02:19:00,VALID,918.91,VALID,0,VALID,92.4991,VALID,0,VALID,19.1565,VALID,135,VALID,1.29961,
2005-02-23, 02:20:00,VALID,918.916,VALID,0,VALID,92.3643,VALID,-0.0169808,VALID,19.2022,VALID,126,VALID,1.30488,
2005-02-23, 02:21:00,VALID,918.914,VALID,0,VALID,92.1023,VALID,0,VALID,19.2313,VALID,118,VALID,1.26836,
2005-02-23, 02:22:00,VALID,918.913,VALID,0,VALID,91.8989,VALID,-0.0169808,VALID,19.2804,VALID,126,VALID,1.18941,
2005-02-23, 02:23:00,VALID,918.909,VALID,0,VALID,91.6623,VALID,0.0169808,VALID,19.3085,VALID,130,VALID,1.05469,
2005-02-23, 02:24:00,VALID,918.905,VALID,0,VALID,91.4665,VALID,-0.0169808,VALID,19.354,VALID,135,VALID,1.33487,
2005-02-23, 02:25:00,VALID,918.909,VALID,0,VALID,91.202,VALID,-0.0169808,VALID,19.3935,VALID,138,VALID,1.09318,
2005-02-23, 02:26:00,VALID,918.899,VALID,0,VALID,91.0075,VALID,0,VALID,19.4213,VALID,144,VALID,1.02364,
2005-02-23, 02:27:00,VALID,918.905,VALID,0,VALID,90.8905,VALID,-0.0169808,VALID,19.4446,VALID,144,VALID,1.28405,
2005-02-23, 02:28:00,VALID,918.91,VALID,0,VALID,90.7811,VALID,0,VALID,19.4836,VALID,147,VALID,1.32949,
2005-02-23, 02:29:00,VALID,918.904,VALID,0,VALID,90.6145,VALID,0,VALID,19.5124,VALID,153,VALID,1.36192,
2005-02-23, 02:30:00,VALID,918.901,VALID,0,VALID,90.5726,VALID,0,VALID,19.5418,VALID,151,VALID,1.23976,
2005-02-23, 02:31:00,VALID,918.888,VALID,0,VALID,90.5446,VALID,0,VALID,19.5509,VALID,138,VALID,1.20087,
2005-02-23, 02:32:00,VALID,918.876,VALID,0,VALID,90.5204,VALID,0,VALID,19.5442,VALID,129,VALID,1.03085,
2005-02-23, 02:33:00,VALID,918.848,VALID,0,VALID,90.5471,VALID,0.0339617,VALID,19.5445,VALID,132,VALID,0.865371,
2005-02-23, 02:34:00,VALID,918.836,VALID,0,VALID,90.5993,VALID,0,VALID,19.548,VALID,117,VALID,1.04776,
2005-02-23, 02:35:00,VALID,918.814,VALID,0,VALID,90.64,VALID,0,VALID,19.5316,VALID,107,VALID,1.15365,
2005-02-23, 02:36:00,VALID,918.791,VALID,0,VALID,90.5853,VALID,0.0169808,VALID,19.5348,VALID,95,VALID,1.43733,
2005-02-23, 02:37:00,VALID,918.768,VALID,0,VALID,90.3882,VALID,0,VALID,19.541,VALID,102,VALID,1.53525,
2005-02-23, 02:38:00,VALID,918.761,VALID,0,VALID,90.0093,VALID,0.0169808,VALID,19.6061,VALID,103,VALID,1.58771,
2005-02-23, 02:39:00,VALID,918.757,VALID,0,VALID,89.5769,VALID,0,VALID,19.6734,VALID,106,VALID,1.5426,
2005-02-23, 02:40:00,VALID,918.769,VALID,0,VALID,89.3531,VALID,0,VALID,19.7315,VALID,112,VALID,1.44792,
2005-02-23, 02:41:00,VALID,918.759,VALID,0,VALID,89.2031,VALID,0,VALID,19.7668,VALID,109,VALID,1.81499,
2005-02-23, 02:42:00,VALID,918.773,VALID,0,VALID,88.9678,VALID,0,VALID,19.8056,VALID,105,VALID,1.18789,
2005-02-23, 02:43:00,VALID,918.762,VALID,0,VALID,88.9182,VALID,0,VALID,19.7859,VALID,93,VALID,0.84566,
2005-02-23, 02:44:00,VALID,918.762,VALID,0,VALID,89.1586,VALID,0,VALID,19.7345,VALID,87,VALID,1.14553,
2005-02-23, 02:45:00,VALID,918.75,VALID,0,VALID,89.5718,VALID,0,VALID,19.6707,VALID,108,VALID,1.40513,
2005-02-23, 02:46:00,VALID,918.737,VALID,0,VALID,89.7994,VALID,0,VALID,19.6416,VALID,126,VALID,1.15253,
2005-02-23, 02:47:00,VALID,918.725,VALID,0,VALID,89.9101,VALID,0,VALID,19.6093,VALID,115,VALID,0.768466,
2005-02-23, 02:48:00,VALID,918.724,VALID,0,VALID,90.0182,VALID,0,VALID,19.5897,VALID,109,VALID,0.741824,
2005-02-23, 02:49:00,VALID,918.709,VALID,0,VALID,90.2318,VALID,-0.0169808,VALID,19.5614,VALID,102,VALID,0.745094,
2005-02-23, 02:50:00,VALID,918.704,VALID,0,VALID,90.5306,VALID,0,VALID,19.4926,VALID,115,VALID,0.760742,
2005-02-23, 02:51:00,VALID,918.703,VALID,0,VALID,90.7036,VALID,0,VALID,19.4479,VALID,90,VALID,0.752046,
2005-02-23, 02:52:00,VALID,918.701,VALID,0,VALID,91.0596,VALID,0.0169808,VALID,19.3992,VALID,94,VALID,0.79173,
2005-02-23, 02:53:00,VALID,918.688,VALID,0,VALID,91.2681,VALID,0,VALID,19.3639,VALID,98,VALID,0.87686,
2005-02-23, 02:54:00,VALID,918.666,VALID,0,VALID,91.464,VALID,0.0169808,VALID,19.3088,VALID,92,VALID,0.911014,
2005-02-23, 02:55:00,VALID,918.64,VALID,0,VALID,91.2567,VALID,0,VALID,19.241,VALID,63,VALID,0.826923,
2005-02-23, 02:56:00,VALID,918.628,VALID,0,VALID,91.5657,VALID,0,VALID,19.1215,VALID,51,VALID,1.07508,
2005-02-23, 02:57:00,VALID,918.602,VALID,0,VALID,92.1837,VALID,0,VALID,19.0147,VALID,56,VALID,1.09985,
2005-02-23, 02:58:00,VALID,918.589,VALID,0,VALID,92.967,VALID,0.0509425,VALID,18.9596,VALID,73,VALID,1.05153,
2005-02-23, 02:59:00,VALID,918.589,VALID,0,VALID,93.2646,VALID,0,VALID,18.9442,VALID,91,VALID,0.924237,
2005-02-23, 03:00:00,VALID,918.606,VALID,0,VALID,93.1857,VALID,0,VALID,18.9047,VALID,82,VALID,0.891927,
2005-02-23, 03:01:00,VALID,918.594,VALID,0,VALID,92.7203,VALID,0,VALID,18.8339,VALID,60,VALID,0.973474,
2005-02-23, 03:02:00,VALID,918.602,VALID,0,VALID,93.6054,VALID,0.0169808,VALID,18.7435,VALID,55,VALID,0.921875,
2005-02-23, 03:03:00,VALID,918.601,VALID,0,VALID,94.1445,VALID,0,VALID,18.7145,VALID,68,VALID,1.03999,
2005-02-23, 03:04:00,VALID,918.594,VALID,0,VALID,94.3022,VALID,0.0169808,VALID,18.7405,VALID,81,VALID,0.851563,
2005-02-23, 03:05:00,VALID,918.582,VALID,0,VALID,94.1903,VALID,0,VALID,18.7567,VALID,83,VALID,0.824653,
2005-02-23, 03:06:00,VALID,918.549,VALID,0,VALID,94.0453,VALID,0,VALID,18.7629,VALID,96,VALID,0.942522,
2005-02-23, 03:07:00,VALID,918.55,VALID,0,VALID,93.922,VALID,-0.0169808,VALID,18.7733,VALID,99,VALID,0.786914,
2005-02-23, 03:08:00,VALID,918.549,VALID,0,VALID,93.8075,VALID,-0.0339617,VALID,18.7763,VALID,100,VALID,0.82793,
2005-02-23, 03:09:00,VALID,918.547,VALID,0,VALID,93.7554,VALID,-0.0509425,VALID,18.7639,VALID,95,VALID,0.710764,
2005-02-23, 03:10:00,VALID,918.566,VALID,0,VALID,93.8597,VALID,0,VALID,18.7438,VALID,101,VALID,0.633557,
2005-02-23, 03:11:00,VALID,918.573,VALID,0,VALID,93.9919,VALID,-0.0169808,VALID,18.7313,VALID,114,VALID,0.672276,
2005-02-23, 03:12:00,VALID,918.586,VALID,0,VALID,94.0466,VALID,-0.0169808,VALID,18.7283,VALID,123,VALID,0.739025,
2005-02-23, 03:13:00,VALID,918.585,VALID,0,VALID,94.2997,VALID,-0.0339617,VALID,18.7083,VALID,141,VALID,0.923735,
2005-02-23, 03:14:00,VALID,918.583,VALID,0,VALID,94.3823,VALID,0,VALID,18.7378,VALID,145,VALID,1.07227,
2005-02-23, 03:15:00,VALID,918.574,VALID,0,VALID,94.1852,VALID,-0.0169808,VALID,18.7639,VALID,149,VALID,1.01799,
2005-02-23, 03:16:00,VALID,918.557,VALID,0,VALID,94.1127,VALID,0,VALID,18.7798,VALID,155,VALID,0.695313,
2005-02-23, 03:17:00,VALID,918.559,VALID,0,VALID,94.0428,VALID,-0.0169808,VALID,18.7865,VALID,151,VALID,0.94122,
2005-02-23, 03:18:00,VALID,918.543,VALID,0,VALID,94.0746,VALID,-0.0169808,VALID,18.783,VALID,153,VALID,0.759301,
2005-02-23, 03:19:00,VALID,918.517,VALID,0,VALID,94.1471,VALID,-0.0169808,VALID,18.7703,VALID,148,VALID,1.01246,
2005-02-23, 03:20:00,VALID,918.515,VALID,0,VALID,94.203,VALID,-0.0339617,VALID,18.7805,VALID,143,VALID,0.825284,
2005-02-23, 03:21:00,VALID,918.502,VALID,0,VALID,94.1076,VALID,-0.0339617,VALID,18.7733,VALID,135,VALID,0.648793,
2005-02-23, 03:22:00,VALID,918.508,VALID,0,VALID,94.1712,VALID,-0.0169808,VALID,18.7703,VALID,128,VALID,0.617551,
2005-02-23, 03:23:00,VALID,918.504,VALID,0,VALID,94.1763,VALID,-0.0339617,VALID,18.7899,VALID,130,VALID,0.674132,
2005-02-23, 03:24:00,VALID,918.497,VALID,0,VALID,94.2094,VALID,-0.0849042,VALID,18.7961,VALID,127,VALID,0.860618,
2005-02-23, 03:25:00,VALID,918.496,VALID,0,VALID,94.1712,VALID,-0.0339617,VALID,18.8123,VALID,129,VALID,0.77782,
2005-02-23, 03:26:00,VALID,918.502,VALID,0,VALID,94.161,VALID,-0.0679233,VALID,18.8284,VALID,129,VALID,0.826705,
2005-02-23, 03:27:00,VALID,918.504,VALID,0,VALID,93.8876,VALID,0,VALID,18.8706,VALID,129,VALID,0.40532,
2005-02-23, 03:28:00,VALID,918.504,VALID,0,VALID,93.7389,VALID,-0.0509425,VALID,18.8831,VALID,129,VALID,0.515451,
2005-02-23, 03:29:00,VALID,918.503,VALID,0,VALID,93.7414,VALID,0,VALID,18.8764,VALID,135,VALID,0.795201,
2005-02-23, 03:30:00,VALID,918.509,VALID,0,VALID,93.7147,VALID,-0.0169808,VALID,18.8992,VALID,130,VALID,0.815589,
2005-02-23, 03:31:00,VALID,918.508,VALID,0,VALID,93.6638,VALID,-0.0339617,VALID,18.9223,VALID,121,VALID,0.810826,
2005-02-23, 03:32:00,VALID,918.516,VALID,0,VALID,93.4846,VALID,-0.0169808,VALID,18.9285,VALID,126,VALID,0.783612,
2005-02-23, 03:33:00,VALID,918.507,VALID,0,VALID,93.3358,VALID,-0.0169808,VALID,18.9317,VALID,127,VALID,0.566134,
2005-02-23, 03:34:00,VALID,918.506,VALID,0,VALID,93.4718,VALID,0,VALID,18.9054,VALID,138,VALID,0.752604,
2005-02-23, 03:35:00,VALID,918.508,VALID,0,VALID,93.613,VALID,-0.0339617,VALID,18.9098,VALID,138,VALID,0.820313,
2005-02-23, 03:36:00,VALID,918.498,VALID,0,VALID,93.7351,VALID,-0.0169808,VALID,18.9066,VALID,132,VALID,0.922602,
2005-02-23, 03:37:00,VALID,918.503,VALID,0,VALID,93.8037,VALID,-0.0169808,VALID,18.8865,VALID,137,VALID,1.04501,
2005-02-23, 03:38:00,VALID,918.478,VALID,0,VALID,93.9347,VALID,0,VALID,18.8995,VALID,137,VALID,1.22816,